Location: La Pernelle
(49.6188°N, 1.2999°W)
Time: 12:22:07
(UTC+00:00)

Cosmos 1954 Rocket - Pass Details

Date: 24 October 2021
Orbit: 751 x 782 km, 74.0° (Epoch: 26 November)

Event Time Altitude Azimuth Distance (km) Brightness Sun altitude
Rises 20:03:40 0° 335° (NNW) 3,238 7.8 -30.6°
Reaches altitude 10° 20:06:02 10° 334° (NNW) 2,313 7.0 -31.0°
Enters shadow 20:09:42 46° 324° (NW) 1,033 4.9 -31.5°
